THORAD DELTA 1 DEB, 8182

Orbit data source: Space-Track

THORAD DELTA 1 DEB, 8182 is space debris in SSO originally from a launch on Fri, 15 Nov 1974 UTC launched from the Air Force Western Test Range (AFWTR). Debris objects in space refer to the collection of defunct objects orbiting the Earth. Examples of debris include non-operational satellites, rocket bodies, and fragments generated from explosions, collisions, or faulty payload assembly.

Loading next visibility...
Identifier
8182, 1974-089AY
Orbit
SSO
Country
Flag of USUS
Related business
Manufacturer
Unknown
Mission
Spacecraft
Bus & Motor
Unknown
Mass
Unknown
Launch date (UTC)
1974-11-15 (51 years ago)
Launch vehicle
Unknown
Launch site
Air Force Western Test Range (AFWTR)
Object type
Payload
Rocket body
Debris
Shape & HBR
Unknown shape, 0.1 m
Radar Cross Section
Small (<0.1 m²)

Expand to show TLE details & history
Last TLE update: 17 hours ago

TLE from 17 hours ago
0 THORAD DELTA 1 DEB
1 08182U 74089AY  26095.18385190  .00002981  00000-0  12503-1 0  9996
2 08182 100.3713 176.3913 0136477 250.4220 136.4204 12.81504119357219
Epoch: 2026-04-05T04:24Z
TLE epoch observation values (Epoch: 2026-04-05T04:24:44.804Z)
Latitude
27.45063°
Longitude
-88.71682°
Altitude
1,415.527 km
Speed
7.119 km/s
True Right ascension
11h 23m 51s
True Declination
27° 19' 19"
Sunlit
Object was in full shadow at epoch
Visualization orbit readout
Latitude
Unknown
Longitude
Unknown
Altitude
Unknown
Speed
Unknown
Apparent Right ascension
Unknown
Apparent Declination
Unknown
Sunlit
N/A
Visualization observer readout
Local Sidereal Time
03:00:08
Azimuth
Unknown
Elevation
Unknown
Doppler factor
Unknown
Orbital elements
Apogee altitude
1,438.093 km
Perigee altitude
1,227.619 km
Semi-major axis
7,710.993 km
Eccentricity
0.01365
Inclination
100.3713°
RAAN
176.3913°
Arg. of periapsis
250.422°
True anomaly
137.48527°
Mean anomaly
136.4204°
Eccentric anomaly
136.95415°
Mean motion
3.20537 °/min
Orbital period
112.31 mins
BSTAR
0.012503
Loading maneuver chart data...
Computing Atmospheric mass density...

Documentation

Showing up to 5 results
|